"Sample Date","Sample Time","Sensor Name","Sample Value","Units","Flow Rate","Sample Interval","Sample Volume","Laser Status","Number Channels","Micron Size 0","Counts/Channel 0","Micron Size 1","Counts/Channel 1","Micron Size 2","Counts/Channel 2","Micron Size 3","Counts/Channel 3","Micron Size 4","Counts/Channel 4","Micron Size 5","Counts/Channel 5","Micron Size 6","Counts/Channel 6","Micron Size 7","Counts/Channel 7","Micron Size 8","Counts/Channel 8","Micron Size 9","Counts/Channel 9","Micron Size 10","Counts/Channel 10","Micron Size 11","Counts/Channel 11","Micron Size 12","Counts/Channel 12","Micron Size 13","Counts/Channel 13","Micron Size 14","Counts/Channel 14","Micron Size 15","Counts/Channel 15","Micron Size 16","Counts/Channel 16","Micron Size 17","Counts/Channel 17","Micron Size 18","Counts/Channel 18","Micron Size 19","Counts/Channel 19","Micron Size 20","Counts/Channel 20","Micron Size 21","Counts/Channel 21","Micron Size 22","Counts/Channel 22","Micron Size 23","Counts/Channel 23","Micron Size 24","Counts/Channel 24","Micron Size 25","Counts/Channel 25","Micron Size 26","Counts/Channel 26","Micron Size 27","Counts/Channel 27","Micron Size 28","Counts/Channel 28","Micron Size 29","Counts/Channel 29","Micron Size 30","Counts/Channel 30","Micron Size 31","Counts/Channel 31"
"07/12/06","10:00:01","AMMA06",79298.000,"cc",28313.240,6.00,2831.324,1,6,0.100,36816.000,0.200,34123.000,0.300,7593.000,0.500,536.000,1.000,230.000,5.000,0
"07/12/06","10:00:07","AMMA06",78797.000,"cc",28294.432,6.00,2829.443,1,6,0.100,36633.000,0.200,34195.000,0.300,7310.000,0.500,479.000,1.000,180.000,5.000,0
"07/12/06","10:00:13","AMMA06",79151.000,"cc",28304.662,6.00,2830.466,1,6,0.100,36804.000,0.200,34325.000,0.300,7359.000,0.500,503.000,1.000,160.000,5.000,0
"07/12/06","10:00:19","AMMA06",79476.000,"cc",28325.570,6.00,2832.557,1,6,0.100,36957.000,0.200,34478.000,0.300,7424.000,0.500,451.000,1.000,166.000,5.000,0
"07/12/06","10:00:25","AMMA06",79060.000,"cc",28293.070,6.00,2829.307,1,6,0.100,36942.000,0.200,34063.000,0.300,7429.000,0.500,473.000,1.000,153.000,5.000,0
"07/12/06","10:00:31","AMMA06",78602.000,"cc",28322.641,6.00,2832.264,1,6,0.100,36368.000,0.200,34236.000,0.300,7387.000,0.500,466.000,1.000,145.000,5.000,0
"07/12/06","10:00:37","AMMA06",78917.000,"cc",28322.486,6.00,2832.249,1,6,0.100,36785.000,0.200,34123.000,0.300,7363.000,0.500,475.000,1.000,171.000,5.000,0
"07/12/06","10:00:43","AMMA06",79296.000,"cc",28317.770,6.00,2831.777,1,6,0.100,36935.000,0.200,34276.000,0.300,7480.000,0.500,464.000,1.000,141.000,5.000,0
"07/12/06","10:00:49","AMMA06",79474.000,"cc",28346.912,6.00,2834.691,1,6,0.100,36840.000,0.200,34305.000,0.300,7666.000,0.500,488.000,1.000,175.000,5.000,0
"07/12/06","10:00:55","AMMA06",79639.000,"cc",28320.191,6.00,2832.019,1,6,0.100,37030.000,0.200,34433.000,0.300,7469.000,0.500,519.000,1.000,188.000,5.000,0
"07/12/06","10:01:01","AMMA06",79074.000,"cc",28338.678,6.00,2833.868,1,6,0.100,36834.000,0.200,34162.000,0.300,7414.000,0.500,485.000,1.000,178.000,5.000,1.000
"07/12/06","10:01:07","AMMA06",79013.000,"cc",28239.037,6.00,2823.904,1,6,0.100,36905.000,0.200,34072.000,0.300,7394.000,0.500,461.000,1.000,181.000,5.000,0
"07/12/06","10:01:13","AMMA06",79331.000,"cc",28313.672,6.00,2831.367,1,6,0.100,36909.000,0.200,34481.000,0.300,7316.000,0.500,450.000,1.000,175.000,5.000,0
"07/12/06","10:01:19","AMMA06",80116.000,"cc",28286.816,6.00,2828.682,1,6,0.100,37409.000,0.200,34337.000,0.300,7569.000,0.500,574.000,1.000,227.000,5.000,0
"07/12/06","10:01:25","AMMA06",80843.000,"cc",28344.209,6.00,2834.421,1,6,0.100,37675.000,0.200,34200.000,0.300,7847.000,0.500,763.000,1.000,358.000,5.000,0
"07/12/06","10:01:31","AMMA06",79592.000,"cc",28302.762,6.00,2830.276,1,6,0.100,36905.000,0.200,34602.000,0.300,7337.000,0.500,548.000,1.000,200.000,5.000,0
"07/12/06","10:01:37","AMMA06",79900.000,"cc",28308.246,6.00,2830.825,1,6,0.100,37379.000,0.200,34418.000,0.300,7380.000,0.500,504.000,1.000,219.000,5.000,0
"07/12/06","10:01:43","AMMA06",78989.000,"cc",28332.533,6.00,2833.253,1,6,0.100,37099.000,0.200,33947.000,0.300,7385.000,0.500,416.000,1.000,142.000,5.000,0
"07/12/06","10:01:49","AMMA06",79252.000,"cc",28325.606,6.00,2832.561,1,6,0.100,37073.000,0.200,34208.000,0.300,7365.000,0.500,457.000,1.000,149.000,5.000,0
"07/12/06","10:01:55","AMMA06",79307.000,"cc",28340.963,6.00,2834.096,1,6,0.100,37196.000,0.200,34232.000,0.300,7289.000,0.500,420.000,1.000,170.000,5.000,0
"07/12/06","10:02:01","AMMA06",79511.000,"cc",28331.811,6.00,2833.181,1,6,0.100,37311.000,0.200,34252.000,0.300,7341.000,0.500,453.000,1.000,154.000,5.000,0
"07/12/06","10:02:07","AMMA06",78839.000,"cc",28313.873,6.00,2831.388,1,6,0.100,36659.000,0.200,34117.000,0.300,7453.000,0.500,438.000,1.000,172.000,5.000,0
"07/12/06","10:02:13","AMMA06",79105.000,"cc",28326.961,6.00,2832.696,1,6,0.100,37043.000,0.200,34109.000,0.300,7347.000,0.500,433.000,1.000,173.000,5.000,0
"07/12/06","10:02:19","AMMA06",79372.000,"cc",28313.428,6.00,2831.343,1,6,0.100,37460.000,0.200,33903.000,0.300,7388.000,0.500,470.000,1.000,151.000,5.000,0
"07/12/06","10:02:25","AMMA06",79266.000,"cc",28277.301,6.00,2827.730,1,6,0.100,37536.000,0.200,34005.000,0.300,7190.000,0.500,406.000,1.000,129.000,5.000,0
"07/12/06","10:02:31","AMMA06",78753.000,"cc",28323.346,6.00,2832.335,1,6,0.100,37005.000,0.200,33947.000,0.300,7264.000,0.500,394.000,1.000,143.000,5.000,0
"07/12/06","10:02:37","AMMA06",78341.000,"cc",28378.643,6.00,2837.865,1,6,0.100,36974.000,0.200,33669.000,0.300,7161.000,0.500,390.000,1.000,147.000,5.000,0
"07/12/06","10:02:43","AMMA06",78839.000,"cc",28321.795,6.00,2832.180,1,6,0.100,37438.000,0.200,33866.000,0.300,6989.000,0.500,415.000,1.000,131.000,5.000,0
"07/12/06","10:02:49","AMMA06",79080.000,"cc",28296.598,6.00,2829.660,1,6,0.100,37341.000,0.200,34010.000,0.300,7162.000,0.500,416.000,1.000,151.000,5.000,0
"07/12/06","10:02:55","AMMA06",78937.000,"cc",28289.760,6.00,2828.976,1,6,0.100,37586.000,0.200,33816.000,0.300,7004.000,0.500,399.000,1.000,132.000,5.000,0
"07/12/06","10:03:01","AMMA06",79211.000,"cc",28289.018,6.00,2828.902,1,6,0.100,37496.000,0.200,33906.000,0.300,7277.000,0.500,394.000,1.000,137.000,5.000,1.000
"07/12/06","10:03:07","AMMA06",79441.000,"cc",28359.695,6.00,2835.970,1,6,0.100,37931.000,0.200,33797.000,0.300,7138.000,0.500,414.000,1.000,161.000,5.000,0
"07/12/06","10:03:13","AMMA06",79025.000,"cc",28291.949,6.00,2829.195,1,6,0.100,37842.000,0.200,33480.000,0.300,7156.000,0.500,401.000,1.000,146.000,5.000,0
"07/12/06","10:03:19","AMMA06",78850.000,"cc",28366.297,6.00,2836.630,1,6,0.100,37521.000,0.200,33585.000,0.300,7193.000,0.500,390.000,1.000,161.000,5.000,0
"07/12/06","10:03:25","AMMA06",79177.000,"cc",28283.260,6.00,2828.326,1,6,0.100,37831.000,0.200,33593.000,0.300,7174.000,0.500,423.000,1.000,156.000,5.000,0
"07/12/06","10:03:31","AMMA06",79203.000,"cc",28276.930,6.00,2827.693,1,6,0.100,37489.000,0.200,34092.000,0.300,6953.000,0.500,483.000,1.000,186.000,5.000,0
"07/12/06","10:03:37","AMMA06",79532.000,"cc",28300.297,6.00,2830.030,1,6,0.100,37925.000,0.200,33871.000,0.300,7163.000,0.500,410.000,1.000,163.000,5.000,0
"07/12/06","10:03:43","AMMA06",79208.000,"cc",28300.457,6.00,2830.046,1,6,0.100,38026.000,0.200,33751.000,0.300,6854.000,0.500,418.000,1.000,159.000,5.000,0
"07/12/06","10:03:49","AMMA06",79387.000,"cc",28354.275,6.00,2835.428,1,6,0.100,38076.000,0.200,33573.000,0.300,7036.000,0.500,497.000,1.000,205.000,5.000,0
"07/12/06","10:03:55","AMMA06",79129.000,"cc",28345.631,6.00,2834.563,1,6,0.100,37833.000,0.200,33563.000,0.300,7126.000,0.500,451.000,1.000,156.000,5.000,0
"07/12/06","10:04:01","AMMA06",78884.000,"cc",28325.809,6.00,2832.581,1,6,0.100,37617.000,0.200,33627.000,0.300,7090.000,0.500,388.000,1.000,162.000,5.000,0
"07/12/06","10:04:07","AMMA06",79107.000,"cc",28302.186,6.00,2830.219,1,6,0.100,37818.000,0.200,33623.000,0.300,7108.000,0.500,400.000,1.000,158.000,5.000,0
"07/12/06","10:04:13","AMMA06",78477.000,"cc",28355.088,6.00,2835.509,1,6,0.100,37351.000,0.200,33594.000,0.300,6924.000,0.500,425.000,1.000,183.000,5.000,0
"07/12/06","10:04:19","AMMA06",79073.000,"cc",28353.266,6.00,2835.327,1,6,0.100,37558.000,0.200,33764.000,0.300,7151.000,0.500,435.000,1.000,165.000,5.000,0
"07/12/06","10:04:25","AMMA06",78886.000,"cc",28283.561,6.00,2828.356,1,6,0.100,37343.000,0.200,33788.000,0.300,7194.000,0.500,414.000,1.000,147.000,5.000,0
"07/12/06","10:04:31","AMMA06",78724.000,"cc",28321.365,6.00,2832.137,1,6,0.100,37137.000,0.200,33870.000,0.300,7118.000,0.500,431.000,1.000,168.000,5.000,0
"07/12/06","10:04:37","AMMA06",78437.000,"cc",28286.883,6.00,2828.689,1,6,0.100,37202.000,0.200,33491.000,0.300,7171.000,0.500,412.000,1.000,161.000,5.000,0
"07/12/06","10:04:43","AMMA06",78678.000,"cc",28315.438,6.00,2831.544,1,6,0.100,37154.000,0.200,33631.000,0.300,7206.000,0.500,473.000,1.000,214.000,5.000,0
"07/12/06","10:04:49","AMMA06",78804.000,"cc",28332.129,6.00,2833.213,1,6,0.100,37084.000,0.200,33997.000,0.300,7155.000,0.500,430.000,1.000,138.000,5.000,0
"07/12/06","10:04:55","AMMA06",79037.000,"cc",28321.586,6.00,2832.159,1,6,0.100,37228.000,0.200,33718.000,0.300,7387.000,0.500,510.000,1.000,194.000,5.000,0
"07/12/06","10:05:01","AMMA06",79421.000,"cc",28313.766,6.00,2831.377,1,6,0.100,37095.000,0.200,34180.000,0.300,7428.000,0.500,494.000,1.000,223.000,5.000,1.000
"07/12/06","10:05:07","AMMA06",85521.000,"cc",28352.254,6.00,2835.226,1,6,0.100,38881.000,0.200,35258.000,0.300,8914.000,0.500,1534.000,1.000,934.000,5.000,0
"07/12/06","10:05:13","AMMA06",80102.000,"cc",28305.008,6.00,2830.501,1,6,0.100,37417.000,0.200,34119.000,0.300,7578.000,0.500,703.000,1.000,284.000,5.000,1.000
"07/12/06","10:05:19","AMMA06",78987.000,"cc",28298.637,6.00,2829.864,1,6,0.100,37007.000,0.200,33818.000,0.300,7412.000,0.500,536.000,1.000,214.000,5.000,0
"07/12/06","10:05:25","AMMA06",79006.000,"cc",28267.031,6.00,2826.703,1,6,0.100,37078.000,0.200,34023.000,0.300,7282.000,0.500,470.000,1.000,153.000,5.000,0
"07/12/06","10:05:31","AMMA06",79002.000,"cc",28336.072,6.00,2833.607,1,6,0.100,36962.000,0.200,33957.000,0.300,7377.000,0.500,508.000,1.000,198.000,5.000,0
"07/12/06","10:05:37","AMMA06",79850.000,"cc",28341.264,6.00,2834.127,1,6,0.100,37495.000,0.200,34268.000,0.300,7350.000,0.500,520.000,1.000,216.000,5.000,1.000
"07/12/06","10:05:43","AMMA06",78847.000,"cc",28318.076,6.00,2831.808,1,6,0.100,37027.000,0.200,33969.000,0.300,7228.000,0.500,438.000,1.000,185.000,5.000,0
"07/12/06","10:05:49","AMMA06",79172.000,"cc",28365.830,6.00,2836.583,1,6,0.100,37213.000,0.200,34014.000,0.300,7299.000,0.500,474.000,1.000,172.000,5.000,0
"07/12/06","10:05:55","AMMA06",79180.000,"cc",28328.447,6.00,2832.845,1,6,0.100,37405.000,0.200,33900.000,0.300,7209.000,0.500,493.000,1.000,173.000,5.000,0
"07/12/06","10:06:01","AMMA06",78991.000,"cc",28317.232,6.00,2831.723,1,6,0.100,37031.000,0.200,34009.000,0.300,7297.000,0.500,492.000,1.000,162.000,5.000,0
"07/12/06","10:06:07","AMMA06",78942.000,"cc",28299.647,6.00,2829.965,1,6,0.100,37146.000,0.200,33698.000,0.300,7400.000,0.500,498.000,1.000,200.000,5.000,0
"07/12/06","10:06:13","AMMA06",79292.000,"cc",28331.893,6.00,2833.190,1,6,0.100,37411.000,0.200,33965.000,0.300,7274.000,0.500,457.000,1.000,185.000,5.000,0
"07/12/06","10:06:19","AMMA06",78792.000,"cc",28295.117,6.00,2829.512,1,6,0.100,37389.000,0.200,33598.000,0.300,7242.000,0.500,427.000,1.000,136.000,5.000,0
"07/12/06","10:06:25","AMMA06",79327.000,"cc",28278.471,6.00,2827.847,1,6,0.100,37703.000,0.200,33889.000,0.300,7109.000,0.500,477.000,1.000,149.000,5.000,0
"07/12/06","10:06:31","AMMA06",79129.000,"cc",28350.668,6.00,2835.067,1,6,0.100,37399.000,0.200,34024.000,0.300,7096.000,0.500,443.000,1.000,167.000,5.000,0
"07/12/06","10:06:37","AMMA06",79266.000,"cc",28317.465,6.00,2831.747,1,6,0.100,37628.000,0.200,33792.000,0.300,7203.000,0.500,446.000,1.000,197.000,5.000,0
"07/12/06","10:06:43","AMMA06",79043.000,"cc",28362.420,6.00,2836.242,1,6,0.100,37565.000,0.200,33854.000,0.300,7084.000,0.500,402.000,1.000,138.000,5.000,0
"07/12/06","10:06:49","AMMA06",78501.000,"cc",28313.119,6.00,2831.312,1,6,0.100,37137.000,0.200,33739.000,0.300,7080.000,0.500,399.000,1.000,146.000,5.000,0
"07/12/06","10:06:55","AMMA06",78985.000,"cc",28297.641,6.00,2829.764,1,6,0.100,37368.000,0.200,33958.000,0.300,7064.000,0.500,438.000,1.000,157.000,5.000,0
"07/12/06","10:07:01","AMMA06",78773.000,"cc",28312.090,6.00,2831.209,1,6,0.100,37138.000,0.200,33844.000,0.300,7156.000,0.500,473.000,1.000,162.000,5.000,0
"07/12/06","10:07:07","AMMA06",78963.000,"cc",28317.211,6.00,2831.721,1,6,0.100,37402.000,0.200,33824.000,0.300,7135.000,0.500,425.000,1.000,177.000,5.000,0
"07/12/06","10:07:13","AMMA06",79116.000,"cc",28313.139,6.00,2831.314,1,6,0.100,37613.000,0.200,33743.000,0.300,7211.000,0.500,406.000,1.000,143.000,5.000,0
"07/12/06","10:07:19","AMMA06",81723.000,"cc",28323.123,6.00,2832.313,1,6,0.100,39126.000,0.200,34619.000,0.300,7428.000,0.500,421.000,1.000,128.000,5.000,1.000
"07/12/06","10:07:25","AMMA06",95292.000,"cc",28276.619,6.00,2827.662,1,6,0.100,48075.000,0.200,38066.000,0.300,8549.000,0.500,446.000,1.000,156.000,5.000,0
"07/12/06","10:07:31","AMMA06",90988.000,"cc",28344.219,6.00,2834.422,1,6,0.100,45314.000,0.200,36692.000,0.300,8154.000,0.500,594.000,1.000,234.000,5.000,0
"07/12/06","10:07:37","AMMA06",82166.000,"cc",28324.080,6.00,2832.408,1,6,0.100,39159.000,0.200,34562.000,0.300,7589.000,0.500,580.000,1.000,276.000,5.000,0
"07/12/06","10:07:43","AMMA06",79987.000,"cc",28326.738,6.00,2832.674,1,6,0.100,37744.000,0.200,34301.000,0.300,7308.000,0.500,483.000,1.000,151.000,5.000,0
"07/12/06","10:07:49","AMMA06",80209.000,"cc",28348.383,6.00,2834.838,1,6,0.100,38008.000,0.200,34265.000,0.300,7322.000,0.500,430.000,1.000,184.000,5.000,0
"07/12/06","10:07:55","AMMA06",80913.000,"cc",28331.967,6.00,2833.197,1,6,0.100,38387.000,0.200,34470.000,0.300,7346.000,0.500,523.000,1.000,187.000,5.000,0
"07/12/06","10:08:01","AMMA06",82848.000,"cc",28254.225,6.00,2825.423,1,6,0.100,39705.000,0.200,34992.000,0.300,7409.000,0.500,526.000,1.000,216.000,5.000,0
"07/12/06","10:08:07","AMMA06",81378.000,"cc",28344.525,6.00,2834.453,1,6,0.100,38645.000,0.200,34252.000,0.300,7572.000,0.500,640.000,1.000,269.000,5.000,0
"07/12/06","10:08:13","AMMA06",82729.000,"cc",28322.553,6.00,2832.255,1,6,0.100,39354.000,0.200,34907.000,0.300,7559.000,0.500,625.000,1.000,284.000,5.000,0
"07/12/06","10:08:19","AMMA06",80179.000,"cc",28335.748,6.00,2833.575,1,6,0.100,37657.000,0.200,34395.000,0.300,7393.000,0.500,525.000,1.000,209.000,5.000,0
"07/12/06","10:08:25","AMMA06",80739.000,"cc",28319.518,6.00,2831.952,1,6,0.100,38151.000,0.200,34371.000,0.300,7464.000,0.500,532.000,1.000,221.000,5.000,0
"07/12/06","10:08:31","AMMA06",80242.000,"cc",28323.397,6.00,2832.340,1,6,0.100,38163.000,0.200,34095.000,0.300,7355.000,0.500,447.000,1.000,182.000,5.000,0
"07/12/06","10:08:37","AMMA06",80404.000,"cc",28335.264,6.00,2833.527,1,6,0.100,37982.000,0.200,34381.000,0.300,7400.000,0.500,462.000,1.000,179.000,5.000,0
"07/12/06","10:08:43","AMMA06",79451.000,"cc",28295.467,6.00,2829.547,1,6,0.100,37638.000,0.200,33899.000,0.300,7317.000,0.500,418.000,1.000,179.000,5.000,0
"07/12/06","10:08:49","AMMA06",79582.000,"cc",28283.008,6.00,2828.301,1,6,0.100,37808.000,0.200,33737.000,0.300,7385.000,0.500,474.000,1.000,178.000,5.000,0
"07/12/06","10:08:55","AMMA06",80879.000,"cc",28263.936,6.00,2826.394,1,6,0.100,37931.000,0.200,34540.000,0.300,7600.000,0.500,565.000,1.000,243.000,5.000,0
"07/12/06","10:09:01","AMMA06",80069.000,"cc",28372.986,6.00,2837.299,1,6,0.100,37520.000,0.200,34265.000,0.300,7464.000,0.500,580.000,1.000,240.000,5.000,0
"07/12/06","10:09:07","AMMA06",79437.000,"cc",28317.621,6.00,2831.762,1,6,0.100,37224.000,0.200,34181.000,0.300,7289.000,0.500,527.000,1.000,216.000,5.000,0
"07/12/06","10:09:13","AMMA06",79246.000,"cc",28276.934,6.00,2827.694,1,6,0.100,37343.000,0.200,33926.000,0.300,7288.000,0.500,490.000,1.000,199.000,5.000,0
"07/12/06","10:09:19","AMMA06",79080.000,"cc",28344.852,6.00,2834.485,1,6,0.100,37070.000,0.200,33759.000,0.300,7567.000,0.500,506.000,1.000,178.000,5.000,0
"07/12/06","10:09:25","AMMA06",78510.000,"cc",28307.982,6.00,2830.798,1,6,0.100,36652.000,0.200,33951.000,0.300,7233.000,0.500,500.000,1.000,174.000,5.000,0
"07/12/06","10:09:31","AMMA06",79139.000,"cc",28298.731,6.00,2829.873,1,6,0.100,37071.000,0.200,33944.000,0.300,7333.000,0.500,575.000,1.000,216.000,5.000,0
"07/12/06","10:09:37","AMMA06",78943.000,"cc",28359.305,6.00,2835.931,1,6,0.100,36860.000,0.200,33964.000,0.300,7342.000,0.500,564.000,1.000,213.000,5.000,0
"07/12/06","10:09:43","AMMA06",80347.000,"cc",28301.254,6.00,2830.126,1,6,0.100,37659.000,0.200,34111.000,0.300,7653.000,0.500,664.000,1.000,260.000,5.000,0
"07/12/06","10:09:49","AMMA06",78991.000,"cc",28314.889,6.00,2831.489,1,6,0.100,36867.000,0.200,34029.000,0.300,7399.000,0.500,499.000,1.000,197.000,5.000,0
"07/12/06","10:09:55","AMMA06",80852.000,"cc",28269.246,6.00,2826.925,1,6,0.100,37531.000,0.200,34276.000,0.300,7942.000,0.500,762.000,1.000,341.000,5.000,0
"07/12/06","10:10:01","AMMA06",81038.000,"cc",28297.109,6.00,2829.711,1,6,0.100,37576.000,0.200,34758.000,0.300,7775.000,0.500,639.000,1.000,290.000,5.000,0
"07/12/06","10:10:07","AMMA06",79677.000,"cc",28354.736,6.00,2835.474,1,6,0.100,37161.000,0.200,34050.000,0.300,7664.000,0.500,588.000,1.000,214.000,5.000,0
"07/12/06","10:10:13","AMMA06",80193.000,"cc",28325.414,6.00,2832.542,1,6,0.100,37306.000,0.200,34436.000,0.300,7718.000,0.500,530.000,1.000,203.000,5.000,0
"07/12/06","10:10:19","AMMA06",79170.000,"cc",28322.885,6.00,2832.289,1,6,0.100,36705.000,0.200,34379.000,0.300,7422.000,0.500,522.000,1.000,142.000,5.000,0
"07/12/06","10:10:25","AMMA06",79227.000,"cc",28290.565,6.00,2829.057,1,6,0.100,36763.000,0.200,34149.000,0.300,7574.000,0.500,551.000,1.000,190.000,5.000,0
"07/12/06","10:10:31","AMMA06",78877.000,"cc",28326.815,6.00,2832.682,1,6,0.100,36648.000,0.200,34393.000,0.300,7210.000,0.500,469.000,1.000,157.000,5.000,0
"07/12/06","10:10:37","AMMA06",78814.000,"cc",28361.982,6.00,2836.199,1,6,0.100,36545.000,0.200,34251.000,0.300,7442.000,0.500,443.000,1.000,133.000,5.000,0
"07/12/06","10:10:43","AMMA06",78849.000,"cc",28317.254,6.00,2831.726,1,6,0.100,36688.000,0.200,34219.000,0.300,7340.000,0.500,465.000,1.000,137.000,5.000,0
"07/12/06","10:10:49","AMMA06",78560.000,"cc",28311.375,6.00,2831.138,1,6,0.100,36547.000,0.200,34115.000,0.300,7306.000,0.500,446.000,1.000,146.000,5.000,0
"07/12/06","10:10:55","AMMA06",78862.000,"cc",28314.783,6.00,2831.479,1,6,0.100,36502.000,0.200,34374.000,0.300,7411.000,0.500,440.000,1.000,135.000,5.000,0
"07/12/06","10:11:01","AMMA06",79452.000,"cc",28338.369,6.00,2833.837,1,6,0.100,37058.000,0.200,34178.000,0.300,7510.000,0.500,509.000,1.000,197.000,5.000,0
"07/12/06","10:11:07","AMMA06",78989.000,"cc",28325.518,6.00,2832.552,1,6,0.100,36916.000,0.200,34081.000,0.300,7418.000,0.500,425.000,1.000,149.000,5.000,0
"07/12/06","10:11:13","AMMA06",79780.000,"cc",28292.797,6.00,2829.280,1,6,0.100,36986.000,0.200,34323.000,0.300,7680.000,0.500,552.000,1.000,239.000,5.000,0
"07/12/06","10:11:19","AMMA06",79029.000,"cc",28296.168,6.00,2829.617,1,6,0.100,37109.000,0.200,34025.000,0.300,7303.000,0.500,417.000,1.000,175.000,5.000,0
"07/12/06","10:11:25","AMMA06",78401.000,"cc",28320.326,6.00,2832.033,1,6,0.100,36921.000,0.200,33821.000,0.300,7099.000,0.500,414.000,1.000,146.000,5.000,0
"07/12/06","10:11:31","AMMA06",78471.000,"cc",28404.352,6.00,2840.435,1,6,0.100,36842.000,0.200,33749.000,0.300,7288.000,0.500,451.000,1.000,141.000,5.000,0
"07/12/06","10:11:37","AMMA06",78505.000,"cc",28272.965,6.00,2827.297,1,6,0.100,37211.000,0.200,33507.000,0.300,7238.000,0.500,414.000,1.000,135.000,5.000,0
"07/12/06","10:11:43","AMMA06",78790.000,"cc",28250.566,6.00,2825.057,1,6,0.100,37398.000,0.200,33815.000,0.300,7044.000,0.500,396.000,1.000,137.000,5.000,0
"07/12/06","10:11:49","AMMA06",78691.000,"cc",28338.363,6.00,2833.836,1,6,0.100,37170.000,0.200,33753.000,0.300,7276.000,0.500,355.000,1.000,137.000,5.000,0
"07/12/06","10:11:55","AMMA06",78836.000,"cc",28347.027,6.00,2834.703,1,6,0.100,37141.000,0.200,34074.000,0.300,7071.000,0.500,386.000,1.000,164.000,5.000,0
"07/12/06","10:12:01","AMMA06",78606.000,"cc",28309.617,6.00,2830.962,1,6,0.100,37396.000,0.200,33581.000,0.300,7056.000,0.500,411.000,1.000,162.000,5.000,0
"07/12/06","10:12:07","AMMA06",78817.000,"cc",28321.551,6.00,2832.155,1,6,0.100,37433.000,0.200,33667.000,0.300,7141.000,0.500,405.000,1.000,171.000,5.000,0
"07/12/06","10:12:13","AMMA06",79137.000,"cc",28298.346,6.00,2829.835,1,6,0.100,37777.000,0.200,33561.000,0.300,7222.000,0.500,396.000,1.000,181.000,5.000,0
"07/12/06","10:12:19","AMMA06",78236.000,"cc",28310.098,6.00,2831.010,1,6,0.100,37403.000,0.200,33305.000,0.300,6985.000,0.500,387.000,1.000,156.000,5.000,0
"07/12/06","10:12:25","AMMA06",82905.000,"cc",28330.420,6.00,2833.042,1,6,0.100,40911.000,0.200,34178.000,0.300,7268.000,0.500,410.000,1.000,138.000,5.000,0
"07/12/06","10:12:31","AMMA06",86360.000,"cc",28315.781,6.00,2831.578,1,6,0.100,43319.000,0.200,34644.000,0.300,7767.000,0.500,462.000,1.000,168.000,5.000,0
"07/12/06","10:12:37","AMMA06",81100.000,"cc",28318.572,6.00,2831.857,1,6,0.100,39577.000,0.200,33859.000,0.300,7132.000,0.500,424.000,1.000,108.000,5.000,0
"07/12/06","10:12:43","AMMA06",79943.000,"cc",28298.902,6.00,2829.890,1,6,0.100,38819.000,0.200,33431.000,0.300,7115.000,0.500,420.000,1.000,158.000,5.000,0
"07/12/06","10:12:49","AMMA06",79023.000,"cc",28331.787,6.00,2833.179,1,6,0.100,38150.000,0.200,33325.000,0.300,7024.000,0.500,391.000,1.000,133.000,5.000,0
"07/12/06","10:12:55","AMMA06",78597.000,"cc",28333.969,6.00,2833.397,1,6,0.100,37938.000,0.200,33232.000,0.300,6888.000,0.500,400.000,1.000,138.000,5.000,1.000
"07/12/06","10:13:01","AMMA06",78876.000,"cc",28296.772,6.00,2829.677,1,6,0.100,38051.000,0.200,33321.000,0.300,6944.000,0.500,400.000,1.000,160.000,5.000,0
"07/12/06","10:13:07","AMMA06",78529.000,"cc",28319.854,6.00,2831.986,1,6,0.100,38195.000,0.200,32935.000,0.300,6809.000,0.500,414.000,1.000,176.000,5.000,0
"07/12/06","10:13:13","AMMA06",78288.000,"cc",28269.531,6.00,2826.953,1,6,0.100,37704.000,0.200,33251.000,0.300,6804.000,0.500,376.000,1.000,153.000,5.000,0
"07/12/06","10:13:19","AMMA06",78114.000,"cc",28384.150,6.00,2838.415,1,6,0.100,37590.000,0.200,33215.000,0.300,6813.000,0.500,355.000,1.000,141.000,5.000,0
"07/12/06","10:13:25","AMMA06",78545.000,"cc",28344.186,6.00,2834.419,1,6,0.100,37807.000,0.200,33137.000,0.300,7026.000,0.500,436.000,1.000,139.000,5.000,0
"07/12/06","10:13:31","AMMA06",78534.000,"cc",28289.096,6.00,2828.910,1,6,0.100,38052.000,0.200,33129.000,0.300,6874.000,0.500,366.000,1.000,113.000,5.000,0
"07/12/06","10:13:37","AMMA06",78790.000,"cc",28255.424,6.00,2825.543,1,6,0.100,38106.000,0.200,33028.000,0.300,6992.000,0.500,461.000,1.000,203.000,5.000,0
"07/12/06","10:13:43","AMMA06",78343.000,"cc",28356.307,6.00,2835.631,1,6,0.100,37866.000,0.200,33005.000,0.300,6855.000,0.500,447.000,1.000,170.000,5.000,0
"07/12/06","10:13:49","AMMA06",78382.000,"cc",28287.387,6.00,2828.739,1,6,0.100,37502.000,0.200,33425.000,0.300,6913.000,0.500,378.000,1.000,164.000,5.000,0
"07/12/06","10:13:55","AMMA06",78616.000,"cc",28386.299,6.00,2838.630,1,6,0.100,37537.000,0.200,33329.000,0.300,7111.000,0.500,437.000,1.000,202.000,5.000,0
"07/12/06","10:14:01","AMMA06",79616.000,"cc",28298.885,6.00,2829.889,1,6,0.100,37944.000,0.200,33668.000,0.300,7179.000,0.500,581.000,1.000,243.000,5.000,1.000
"07/12/06","10:14:07","AMMA06",80123.000,"cc",28296.270,6.00,2829.627,1,6,0.100,38209.000,0.200,33679.000,0.300,7363.000,0.500,649.000,1.000,223.000,5.000,0
"07/12/06","10:14:13","AMMA06",78929.000,"cc",28260.287,6.00,2826.029,1,6,0.100,37634.000,0.200,33657.000,0.300,7040.000,0.500,448.000,1.000,150.000,5.000,0